Location: Krakow
(50.0212°N, 19.9423°E)
Time: 02:24:28
(UTC+02:00)

UWE-3 - Pass Details

Date: 28 April 2024
Orbit: 569 x 652 km, 97.8° (Epoch: 23 May)

Event Time Altitude Azimuth Distance (km) Brightness Sun altitude
Rises 02:48:20 0° 19° (NNE) 2,875 ? -19.6°
Reaches altitude 10° 02:50:37 10° 27° (NNE) 1,980 ? -19.4°
Maximum altitude 02:54:42 40° 98° (E) 924 ? -19.0°
Enters shadow 02:57:15 20° 157° (SSE) 1,445 ? -18.8°
